| time (UTC) | temp C | wind direction | speed KPH | gust KPH | rain 1hr cm | rain 24hr cm | rain mn cm | humidity % | barometer mb |
| 20260831101703 | 19 | 293 | 11.3 | 19.3 | 0.03 | 0.08 | 0.03 | 83 | 1010.9 |
| 20260831101204 | 19 | 274 | 4.8 | 14.5 | 0.03 | 0.08 | 0.03 | 81 | 1010.8 |
| 20260831100703 | 20 | 242 | 3.2 | 20.9 | 0.00 | 0.05 | 0.00 | 77 | 1010.8 |
| 20260831094704 | 19 | 212 | 4.8 | 16.1 | 0.00 | 0.05 | 0.00 | 78 | 1010.6 |
| 20260831093704 | 18 | 267 | 6.4 | 19.3 | 0.00 | 0.05 | 0.00 | 81 | 1010.6 |
| 20260831093204 | 18 | 299 | 8.0 | 27.4 | 0.00 | 0.05 | 0.00 | 82 | 1010.4 |
| 20260831091705 | 17 | 290 | 8.0 | 19.3 | 0.00 | 0.05 | 0.00 | 83 | 1010.3 |
| 20260831091203 | 17 | 296 | 9.7 | 19.3 | 0.00 | 0.05 | 0.00 | 84 | 1010.3 |
| 20260831090205 | 17 | 270 | 11.3 | 22.5 | 0.00 | 0.05 | 0.00 | 84 | 1010.2 |
| 20260831084704 | 17 | 288 | 3.2 | 16.1 | 0.00 | 0.05 | 0.00 | 86 | 1009.9 |
| 20260831084204 | 17 | 274 | 4.8 | 19.3 | 0.00 | 0.05 | 0.00 | 86 | 1009.9 |
| 20260831083204 | 17 | 259 | 4.8 | 20.9 | 0.00 | 0.05 | 0.00 | 87 | 1009.7 |
| 20260831081703 | 16 | 204 | 3.2 | 11.3 | 0.00 | 0.05 | 0.00 | 89 | 1009.5 |
| 20260831081204 | 16 | 186 | 6.4 | 16.1 | 0.00 | 0.05 | 0.00 | 89 | 1009.4 |
| 20260831080203 | 16 | 238 | 3.2 | 19.3 | 0.00 | 0.05 | 0.00 | 90 | 1009.3 |
| 20260831074704 | 15 | 244 | 4.8 | 8.0 | 0.00 | 0.05 | 0.00 | 91 | 1009.0 |
| 20260831074204 | 15 | 179 | 3.2 | 11.3 | 0.00 | 0.05 | 0.00 | 91 | 1009.0 |
| 20260831073704 | 15 | 244 | 4.8 | 14.5 | 0.00 | 0.05 | 0.00 | 91 | 1008.9 |
| 20260831073203 | 15 | 284 | 6.4 | 14.5 | 0.00 | 0.05 | 0.00 | 91 | 1008.9 |
| 20260831071704 | 14 | 210 | 3.2 | 12.9 | 0.00 | 0.05 | 0.00 | 92 | 1008.7 |
| 20260831071203 | 14 | 228 | 3.2 | 14.5 | 0.00 | 0.05 | 0.00 | 92 | 1008.7 |
| 20260831070704 | 14 | 221 | 4.8 | 12.9 | 0.00 | 0.05 | 0.00 | 92 | 1008.7 |
| 20260831070204 | 14 | 180 | 4.8 | 14.5 | 0.00 | 0.05 | 0.00 | 92 | 1008.5 |
| 20260831064704 | 13 | 246 | 3.2 | 11.3 | 0.00 | 0.05 | 0.00 | 92 | 1008.5 |
| 20260831064204 | 13 | 232 | 6.4 | 12.9 | 0.00 | 0.05 | 0.00 | 93 | 1008.4 |
| 20260831063704 | 13 | 204 | 3.2 | 11.3 | 0.00 | 0.05 | 0.00 | 93 | 1008.3 |
| 20260831063204 | 13 | 204 | 1.6 | 11.3 | 0.00 | 0.05 | 0.00 | 93 | 1008.2 |
| 20260831061704 | 13 | 171 | 1.6 | 11.3 | 0.00 | 0.05 | 0.00 | 93 | 1008.0 |
| 20260831061204 | 13 | 200 | 1.6 | 4.8 | 0.00 | 0.05 | 0.00 | 93 | 1007.9 |
| 20260831060704 | 13 | 234 | 3.2 | 8.0 | 0.00 | 0.05 | 0.00 | 93 | 1007.8 |
| 20260831060204 | 13 | 205 | 1.6 | 9.7 | 0.00 | 0.05 | 0.00 | 92 | 1007.7 |
| 20260831054704 | 13 | 160 | 1.6 | 3.2 | 0.00 | 0.05 | 0.00 | 92 | 1007.5 |
| 20260831053704 | 13 | 238 | 1.6 | 4.8 | 0.00 | 0.05 | 0.00 | 92 | 1007.4 |
| 20260831053204 | 13 | 244 | 1.6 | 12.9 | 0.00 | 0.05 | 0.00 | 92 | 1007.3 |
| 20260831051704 | 13 | 259 | 3.2 | 8.0 | 0.00 | 0.05 | 0.00 | 92 | 1007.1 |
| 20260831051204 | 13 | 251 | 3.2 | 11.3 | 0.00 | 0.05 | 0.00 | 92 | 1007.0 |
| 20260831050704 | 13 | 285 | 1.6 | 8.0 | 0.00 | 0.05 | 0.00 | 92 | 1007.0 |
| 20260831050204 | 13 | 161 | 1.6 | 8.0 | 0.00 | 0.05 | 0.00 | 91 | 1006.9 |
| 20260831044703 | 13 | 222 | 3.2 | 11.3 | 0.00 | 0.05 | 0.00 | 91 | 1006.6 |
| 20260831044204 | 13 | 213 | 3.2 | 8.0 | 0.00 | 0.05 | 0.00 | 91 | 1006.5 |
| 20260831043703 | 13 | 241 | 3.2 | 8.0 | 0.00 | 0.05 | 0.00 | 91 | 1006.5 |
| 20260831041704 | 13 | 166 | 1.6 | 8.0 | 0.00 | 0.05 | 0.00 | 91 | 1006.3 |
| 20260831041203 | 13 | 163 | 3.2 | 11.3 | 0.00 | 0.05 | 0.00 | 91 | 1006.3 |
| 20260831040704 | 13 | 175 | 3.2 | 12.9 | 0.00 | 0.05 | 0.00 | 90 | 1006.2 |
| 20260831040204 | 13 | 182 | 3.2 | 11.3 | 0.00 | 0.05 | 0.00 | 91 | 1006.2 |
| 20260831034703 | 13 | 191 | 3.2 | 12.9 | 0.00 | 0.05 | 0.00 | 90 | 1006.2 |
| 20260831033204 | 14 | 182 | 1.6 | 16.1 | 0.00 | 0.05 | 0.00 | 90 | 1006.1 |
| 20260831031204 | 14 | 185 | 3.2 | 9.7 | 0.00 | 0.05 | 0.00 | 89 | 1006.0 |
| 20260831030704 | 15 | 206 | 3.2 | 9.7 | 0.00 | 0.05 | 0.00 | 89 | 1006.0 |
| 20260831024704 | 15 | 208 | 3.2 | 8.0 | 0.00 | 0.05 | 0.00 | 89 | 1005.8 |
| 20260831024204 | 15 | 245 | 3.2 | 14.5 | 0.00 | 0.05 | 0.00 | 89 | 1005.6 |
| 20260831023704 | 15 | 200 | 4.8 | 12.9 | 0.00 | 0.05 | 0.00 | 89 | 1005.5 |
| 20260831021703 | 15 | 202 | 3.2 | 8.0 | 0.00 | 0.05 | 0.00 | 89 | 1005.4 |
| 20260831021204 | 15 | 219 | 4.8 | 11.3 | 0.00 | 0.05 | 0.00 | 90 | 1005.3 |
| 20260831020205 | 15 | 185 | 9.7 | 19.3 | 0.00 | 0.05 | 0.00 | 90 | 1005.2 |
| 20260831014703 | 15 | 245 | 4.8 | 16.1 | 0.00 | 0.05 | 0.00 | 91 | 1005.0 |
| 20260831014205 | 15 | 185 | 4.8 | 12.9 | 0.00 | 0.05 | 0.00 | 91 | 1005.1 |
| 20260831013705 | 15 | 205 | 3.2 | 19.3 | 0.00 | 0.05 | 0.00 | 91 | 1005.1 |
| 20260831013206 | 15 | 178 | 8.0 | 20.9 | 0.00 | 0.05 | 0.00 | 91 | 1005.0 |
| 20260831011703 | 15 | 188 | 8.0 | 14.5 | 0.00 | 0.05 | 0.00 | 91 | 1005.1 |
| 20260831011204 | 15 | 210 | 11.3 | 20.9 | 0.00 | 0.05 | 0.00 | 92 | 1005.1 |
| 20260831010703 | 15 | 189 | 9.7 | 20.9 | 0.00 | 0.05 | 0.00 | 92 | 1005.1 |
| 20260831004704 | 15 | 181 | 8.0 | 20.9 | 0.00 | 0.05 | 0.00 | 92 | 1004.8 |
| 20260831004204 | 15 | 169 | 11.3 | 16.1 | 0.00 | 0.05 | 0.00 | 92 | 1004.6 |
| 20260831003203 | 15 | 166 | 11.3 | 20.9 | 0.00 | 0.05 | 0.00 | 93 | 1004.6 |
| 20260831001204 | 15 | 176 | 9.7 | 22.5 | 0.00 | 0.05 | 0.00 | 93 | 1004.8 |
| 20260830234703 | 15 | 169 | 11.3 | 16.1 | 0.00 | 0.05 | 0.00 | 93 | 1005.2 |
| 20260830233704 | 15 | 171 | 11.3 | 16.1 | 0.00 | 0.05 | 0.00 | 93 | 1005.4 |
| 20260830233204 | 15 | 173 | 9.7 | 24.1 | 0.00 | 0.05 | 0.00 | 93 | 1005.4 |
| 20260830231703 | 15 | 170 | 9.7 | 12.9 | 0.00 | 0.05 | 0.00 | 92 | 1005.4 |
| 20260830231204 | 15 | 162 | 9.7 | 16.1 | 0.00 | 0.05 | 0.00 | 92 | 1005.5 |
| 20260830230704 | 15 | 164 | 9.7 | 14.5 | 0.00 | 0.05 | 0.00 | 92 | 1005.6 |
| 20260830230204 | 15 | 173 | 9.7 | 20.9 | 0.00 | 0.05 | 0.00 | 92 | 1005.7 |
| 20260830224704 | 15 | 176 | 9.7 | 16.1 | 0.00 | 0.05 | 0.05 | 92 | 1005.8 |
| 20260830224205 | 15 | 176 | 11.3 | 20.9 | 0.00 | 0.05 | 0.05 | 93 | 1005.9 |
| 20260830223704 | 15 | 173 | 8.0 | 16.1 | 0.00 | 0.05 | 0.05 | 93 | 1005.9 |
| 20260830221204 | 15 | 171 | 11.3 | 16.1 | 0.00 | 0.05 | 0.05 | 92 | 1006.2 |
| 20260830220704 | 15 | 180 | 9.7 | 20.9 | 0.00 | 0.05 | 0.05 | 92 | 1006.2 |
| 20260830220205 | 15 | 178 | 9.7 | 20.9 | 0.00 | 0.05 | 0.05 | 92 | 1006.3 |
| 20260830214704 | 15 | 191 | 8.0 | 20.9 | 0.00 | 0.05 | 0.05 | 92 | 1006.5 |
| 20260830213703 | 15 | 176 | 8.0 | 14.5 | 0.00 | 0.05 | 0.05 | 92 | 1006.6 |
| 20260830211705 | 16 | 183 | 11.3 | 19.3 | 0.00 | 0.05 | 0.05 | 91 | 1006.7 |
| 20260830210704 | 16 | 178 | 16.1 | 24.1 | 0.05 | 0.05 | 0.05 | 90 | 1006.6 |
| 20260830210206 | 16 | 178 | 9.7 | 24.1 | 0.05 | 0.05 | 0.05 | 90 | 1006.6 |
| 20260830204704 | 16 | 181 | 19.3 | 33.8 | 0.05 | 0.05 | 0.05 | 89 | 1006.3 |
| 20260830204204 | 16 | 176 | 19.3 | 48.3 | 0.05 | 0.05 | 0.05 | 89 | 1006.2 |
| 20260830203704 | 16 | 176 | 22.5 | 33.8 | 0.05 | 0.05 | 0.05 | 88 | 1006.1 |
| 20260830203204 | 16 | 173 | 20.9 | 38.6 | 0.05 | 0.05 | 0.05 | 87 | 1006.1 |
| 20260830201204 | 18 | 161 | 19.3 | 25.7 | 0.05 | 0.05 | 0.05 | 86 | 1006.4 |
| 20260830200703 | 18 | 169 | 11.3 | 19.3 | 0.00 | 0.00 | 0.00 | 84 | 1006.3 |
| 20260830200205 | 18 | 165 | 11.3 | 20.9 | 0.00 | 0.00 | 0.00 | 83 | 1006.4 |
| 20260830194704 | 18 | 166 | 11.3 | 22.5 | 0.00 | 0.00 | 0.00 | 82 | 1006.2 |
| 20260830194203 | 18 | 166 | 12.9 | 20.9 | 0.00 | 0.00 | 0.00 | 82 | 1006.3 |
| 20260830193704 | 18 | 161 | 16.1 | 24.1 | 0.00 | 0.00 | 0.00 | 81 | 1006.3 |
| 20260830193204 | 18 | 165 | 16.1 | 24.1 | 0.00 | 0.00 | 0.00 | 81 | 1006.4 |
| 20260830191704 | 18 | 176 | 12.9 | 20.9 | 0.00 | 0.00 | 0.00 | 80 | 1006.6 |
| 20260830191203 | 18 | 172 | 16.1 | 22.5 | 0.00 | 0.00 | 0.00 | 80 | 1006.8 |
| 20260830190703 | 18 | 168 | 12.9 | 24.1 | 0.00 | 0.00 | 0.00 | 80 | 1006.7 |
| 20260830190204 | 18 | 165 | 12.9 | 25.7 | 0.00 | 0.00 | 0.00 | 80 | 1006.7 |
| 20260830184204 | 18 | 164 | 16.1 | 20.9 | 0.00 | 0.00 | 0.00 | 78 | 1006.8 |
| 20260830183705 | 18 | 180 | 11.3 | 22.5 | 0.00 | 0.00 | 0.00 | 78 | 1006.8 |
| 20260830181704 | 18 | 173 | 14.5 | 24.1 | 0.00 | 0.00 | 0.00 | 77 | 1006.9 |
| 20260830181204 | 19 | 165 | 16.1 | 29.0 | 0.00 | 0.00 | 0.00 | 78 | 1007.0 |
| 20260830180704 | 19 | 184 | 11.3 | 22.5 | 0.00 | 0.00 | 0.00 | 77 | 1007.1 |
| 20260830180204 | 19 | 178 | 14.5 | 29.0 | 0.00 | 0.00 | 0.00 | 77 | 1007.1 |
| 20260830174704 | 19 | 186 | 14.5 | 24.1 | 0.00 | 0.00 | 0.00 | 75 | 1007.3 |
| 20260830174204 | 19 | 180 | 17.7 | 32.2 | 0.00 | 0.00 | 0.00 | 75 | 1007.3 |
| 20260830173704 | 19 | 168 | 19.3 | 32.2 | 0.00 | 0.00 | 0.00 | 75 | 1007.4 |
| 20260830171704 | 20 | 161 | 14.5 | 29.0 | 0.00 | 0.00 | 0.00 | 73 | 1007.3 |
| 20260830171204 | 20 | 176 | 12.9 | 27.4 | 0.00 | 0.00 | 0.00 | 73 | 1007.5 |
| 20260830170704 | 20 | 175 | 16.1 | 29.0 | 0.00 | 0.00 | 0.00 | 72 | 1007.5 |
| 20260830170203 | 20 | 175 | 16.1 | 25.7 | 0.00 | 0.00 | 0.00 | 73 | 1007.6 |
| 20260830164204 | 20 | 167 | 16.1 | 27.4 | 0.00 | 0.03 | 0.00 | 72 | 1007.5 |
| 20260830163704 | 20 | 169 | 11.3 | 29.0 | 0.00 | 0.05 | 0.00 | 71 | 1007.6 |
| 20260830163204 | 20 | 180 | 9.7 | 32.2 | 0.00 | 0.05 | 0.00 | 72 | 1007.5 |
| 20260830161704 | 20 | 189 | 12.9 | 24.1 | 0.00 | 0.05 | 0.00 | 69 | 1007.6 |
| 20260830161204 | 20 | 180 | 16.1 | 27.4 | 0.00 | 0.05 | 0.00 | 70 | 1007.8 |
| 20260830160704 | 21 | 168 | 20.9 | 32.2 | 0.00 | 0.05 | 0.00 | 71 | 1007.7 |
| 20260830160206 | 21 | 172 | 14.5 | 38.6 | 0.00 | 0.05 | 0.00 | 71 | 1007.8 |
| 20260830154704 | 22 | 171 | 20.9 | 38.6 | 0.00 | 0.05 | 0.00 | 67 | 1008.0 |
| 20260830154204 | 22 | 173 | 17.7 | 25.7 | 0.00 | 0.05 | 0.00 | 68 | 1008.0 |
| 20260830153704 | 21 | 166 | 22.5 | 33.8 | 0.00 | 0.05 | 0.00 | 69 | 1008.0 |
| 20260830153204 | 21 | 182 | 16.1 | 33.8 | 0.00 | 0.05 | 0.00 | 71 | 1008.1 |
| 20260830151704 | 21 | 182 | 14.5 | 25.7 | 0.00 | 0.13 | 0.00 | 71 | 1008.3 |
| 20260830151204 | 21 | 183 | 17.7 | 27.4 | 0.00 | 0.13 | 0.00 | 71 | 1008.2 |
| 20260830150204 | 20 | 185 | 11.3 | 33.8 | 0.00 | 0.13 | 0.00 | 75 | 1008.4 |
| 20260830144705 | 20 | 171 | 12.9 | 27.4 | 0.00 | 0.13 | 0.00 | 73 | 1008.6 |
| 20260830144204 | 21 | 175 | 11.3 | 27.4 | 0.00 | 0.13 | 0.00 | 71 | 1008.6 |
| 20260830143704 | 21 | 184 | 11.3 | 27.4 | 0.00 | 0.13 | 0.00 | 69 | 1008.7 |
| 20260830143204 | 21 | 223 | 12.9 | 37.0 | 0.00 | 0.13 | 0.00 | 67 | 1008.6 |
| 20260830141204 | 23 | 180 | 16.1 | 35.4 | 0.00 | 0.15 | 0.00 | 63 | 1008.4 |
| 20260830140704 | 23 | 177 | 16.1 | 32.2 | 0.00 | 0.15 | 0.00 | 61 | 1008.4 |
| 20260830140204 | 23 | 163 | 19.3 | 41.8 | 0.00 | 0.15 | 0.00 | 63 | 1008.4 |
| 20260830134703 | 23 | 174 | 16.1 | 27.4 | 0.00 | 0.15 | 0.00 | 64 | 1008.4 |
| 20260830134204 | 23 | 180 | 22.5 | 33.8 | 0.00 | 0.20 | 0.00 | 63 | 1008.5 |
| 20260830133704 | 23 | 167 | 19.3 | 27.4 | 0.00 | 0.23 | 0.00 | 63 | 1008.3 |
| 20260830133203 | 23 | 175 | 19.3 | 33.8 | 0.00 | 0.23 | 0.00 | 64 | 1008.5 |
| 20260830131703 | 23 | 174 | 16.1 | 24.1 | 0.00 | 0.23 | 0.00 | 65 | 1008.7 |
| 20260830131204 | 23 | 176 | 16.1 | 25.7 | 0.00 | 0.23 | 0.00 | 67 | 1008.7 |
| 20260830130704 | 22 | 173 | 14.5 | 27.4 | 0.00 | 0.23 | 0.00 | 68 | 1008.7 |
| 20260830130204 | 22 | 166 | 17.7 | 33.8 | 0.00 | 0.23 | 0.00 | 69 | 1008.9 |
| 20260830124704 | 22 | 163 | 19.3 | 25.7 | 0.00 | 0.23 | 0.00 | 67 | 1008.9 |
| 20260830124203 | 22 | 176 | 17.7 | 35.4 | 0.00 | 0.23 | 0.00 | 69 | 1009.0 |
| 20260830123703 | 21 | 164 | 19.3 | 29.0 | 0.00 | 0.23 | 0.00 | 70 | 1009.0 |
| 20260830123204 | 21 | 177 | 16.1 | 38.6 | 0.00 | 0.23 | 0.00 | 73 | 1009.1 |
| 20260830121703 | 22 | 163 | 14.5 | 32.2 | 0.00 | 0.23 | 0.00 | 70 | 1009.1 |
| 20260830121204 | 22 | 171 | 22.5 | 38.6 | 0.00 | 0.25 | 0.00 | 70 | 1009.2 |
| 20260830120704 | 22 | 175 | 16.1 | 27.4 | 0.00 | 0.30 | 0.00 | 70 | 1009.2 |
| 20260830114704 | 21 | 165 | 14.5 | 27.4 | 0.00 | 0.30 | 0.00 | 73 | 1009.2 |
| 20260830114204 | 21 | 166 | 20.9 | 35.4 | 0.00 | 0.33 | 0.00 | 74 | 1009.2 |
| 20260830113704 | 21 | 182 | 14.5 | 20.9 | 0.00 | 0.33 | 0.00 | 73 | 1009.2 |
| 20260830111703 | 22 | 163 | 17.7 | 27.4 | 0.00 | 0.33 | 0.00 | 71 | 1009.3 |
| 20260830111203 | 22 | 168 | 12.9 | 20.9 | 0.00 | 0.33 | 0.00 | 72 | 1009.4 |
| 20260830110704 | 21 | 161 | 12.9 | 24.1 | 0.00 | 0.33 | 0.00 | 72 | 1009.4 |
| 20260830104704 | 21 | 162 | 11.3 | 20.9 | 0.00 | 0.33 | 0.00 | 76 | 1009.6 |
| 20260830104205 | 21 | 175 | 12.9 | 20.9 | 0.00 | 0.33 | 0.00 | 78 | 1009.8 |
| 20260830103704 | 20 | 171 | 8.0 | 19.3 | 0.00 | 0.33 | 0.00 | 78 | 1009.8 |
| 20260830103204 | 20 | 168 | 9.7 | 19.3 | 0.00 | 0.33 | 0.00 | 78 | 1009.9 |